This demonstration page uses our WeatherBlox Daily Observations layout. Learn more.

36.17497, -115.13722

Hourly Observations for April 19, 2015

Temp ( °F °C ) Dew Point ( °F °C ) Humidity (%) Winds ( mph kmh ) Pressure ( in mb ) Visibility ( mi km ) Precip ( " mm )
12:53 am 00:53 Clear 69 20.6 13 -10.6 11 11 N 8 13 29.85 1011 10 16.0934 0 0
1:53 am 01:53 Clear 66 18.9 15 -9.4 14 14 Calm 29.86 1011 10 16.0934 0 0
2:53 am 02:53 Clear 68 20 15 -9.4 13 13 WNW 3 6 29.86 1011 10 16.0934 0 0
3:53 am 03:53 Clear 63 17.2 17 -8.3 17 17 NNW 5 7 29.89 1012 10 16.0934 0 0
4:53 am 04:53 Clear 61 16.1 21 -6.1 21 21 NW 9 15 29.89 1012 10 16.0934 0 0
5:53 am 05:53 Clear 62 16.7 14 -10 15 15 NNW 7 11 29.91 1013 10 16.0934 0 0
6:53 am 06:53 Sunny 63 17.2 15 -9.4 15 15 SSE 5 7 29.93 1014 10 16.0934 0 0
7:53 am 07:53 Sunny 66 18.9 17 -8.3 15 15 Calm 29.94 1014 10 16.0934 0 0
8:53 am 08:53 Sunny 75 23.9 16 -8.9 10 10 N 7 11 29.93 1014 10 16.0934 0 0
9:53 am 09:53 Sunny 76 24.4 17 -8.3 11 11 ENE 3 6 29.94 1014 10 16.0934 0 0
10:53 am 10:53 Sunny 78 25.6 14 -10 9 9 Calm 29.93 1014 10 16.0934 0 0
11:53 am 11:53 Sunny 82 27.8 14 -10 8 8 ENE 6 9 29.91 1013 10 16.0934 0 0
12:53 pm 12:53 Sunny 82 27.8 13 -10.6 7 7 SSE 6 9 29.88 1012 10 16.0934 0 0
1:53 pm 13:53 Sunny 84 28.9 11 -11.7 6 6 VRB 6 9 29.85 1011 10 16.0934 0 0
2:53 pm 14:53 Sunny 86 30 9 -12.8 5 5 NNW 5 7 29.82 1010 10 16.0934 0 0
3:53 pm 15:53 Sunny 85 29.4 12 -11.1 6 6 SW 3 6 29.79 1009 10 16.0934 0 0
4:53 pm 16:53 Sunny 87 30.6 12 -11.1 6 6 WSW 7 11 29.77 1008 10 16.0934 0 0
5:53 pm 17:53 Sunny 86 30 11 -11.7 6 6 SW 8 13 29.75 1008 10 16.0934 0 0
6:53 pm 18:53 Sunny 85 29.4 12 -11.1 6 6 W 8 13 29.75 1007 10 16.0934 0 0
7:53 pm 19:53 Clear 82 27.8 15 -9.4 8 8 W 5 7 29.75 1007 10 16.0934 0 0
8:53 pm 20:53 Clear 80 26.7 16 -8.9 9 9 W 9 15 29.76 1008 10 16.0934 0 0
9:53 pm 21:53 Clear 79 26.1 16 -8.9 9 9 SW 3 6 29.76 1008 10 16.0934 0 0
10:53 pm 22:53 Clear 75 23.9 15 -9.4 10 10 NNW 5 7 29.77 1008 10 16.0934 0 0
11:53 pm 23:53 Clear 72 22.2 13 -10.6 10 10 N 7 11 29.77 1008 10 16.0934 0 0

Powered by AerisWeather